#timestamp,LO_Frequency,Hit,StdDev 
1549036815.6,286047001.2,N
1549036835.4,286046998.5,N
1549036855.3,286046999.1,N
1549036875.1,286046998.9,N
1549036895.9,286046998.1,N
1549036915.7,286046998.1,N
1549036935.5,286047000.4,N
1549036955.4,286047000.4,N
1549036975.2,286047000.8,N
1549036995.0,286046998.2,N
1549036995.9,286046998.2,N
1549037015.8,286046998.7,N
1549037035.6,286046998.9,N
1549037055.5,286046998.3,N
1549037075.3,286046998.7,N
1549037095.1,286046998.9,N
1549037115.9,286047001.2,N
1549037135.7,286047002.6,N
1549037155.5,286047000.4,N
1549037175.4,286047002.5,N
1549037195.2,286047002.4,N
1549037215.1,286047003.9,N
1549037216.0,286047003.9,N
1549037235.8,286047001.6,N
1549037255.6,286047003.8,N
1549037275.5,286047001.3,N
1549037295.3,286047001.8,N
1549037315.2,286047004.4,N
1549037335.9,286047003.8,N
1549037355.7,286047004.2,N
1549037375.6,286047001.4,N
1549037395.4,286047003.8,N
1549037415.2,286047002.0,N
1549037435.1,286047001.6,N
1549037436.0,286047001.6,N
1549037455.8,286047001.5,N
1549037475.7,286047003.5,N
1549037495.5,286047004.4,N
1549037515.3,286047004.1,N
1549037535.2,286047004.8,N
1549037555.0,286047004.6,N
1549037555.9,286047004.6,N
1549037575.8,286047005.1,N
1549037595.6,286047004.1,N
1549037615.4,286047003.1,N
1549037635.3,286047005.9,Y
1549037655.1,286047002.3,P
1549037675.8,286047002.3,P
1549037695.7,286047000.4,N
1549037715.5,286047002.7,N
1549037735.4,286047002.4,N
1549037755.2,286047001.6,N
1549037775.0,286047000.7,N
1549037775.9,286047000.7,N
1549037795.8,286046999.9,N
1549037815.6,286046999.9,N
1549037835.5,286047001.3,N
1549037855.3,286047002.1,N
1549037875.1,286047001.7,N
1549037895.9,286047001.9,N
1549037915.7,286047000.2,N
1549037935.5,286047002.5,N
1549037955.4,286047003.6,Y
1549037975.2,286047004.4,P
1549037995.1,286047001.8,N
1549037996.0,286047001.8,N
1549038015.8,286047004.0,Y
1549038035.6,286047000.1,P
1549038055.5,286047001.1,N
1549038075.3,286046998.6,N
1549038095.2,286046998.3,N
1549038115.9,286046998.3,N
1549038135.7,286046998.5,N
1549038155.6,286046998.1,N
1549038175.4,286047000.3,N
1549038195.2,286046998.2,N
1549038215.1,286047000.9,N
1549038216.0,286047000.9,N
1549038235.8,286046998.7,N
1549038255.7,286046996.8,N
1549038275.5,286046996.6,N
1549038295.3,286046997.8,N
1549038315.2,286046997.3,N
1549038335.0,286046996.8,N
1549038335.9,286046996.8,N
1549038355.8,286046999.0,N
1549038375.6,286046996.9,N
1549038395.4,286046999.2,N
1549038415.3,286046998.6,N
1549038435.1,286046998.4,N
1549038455.8,286046998.4,N
1549038475.7,286047000.4,N
1549038495.5,286046998.2,N
1549038515.4,286047001.2,N
1549038535.2,286046998.3,N
1549038555.0,286047001.1,N
1549038555.9,286047001.1,N
1549038575.8,286046998.5,N
1549038595.6,286046998.6,N
1549038615.5,286047000.8,N
1549038635.3,286047001.2,N
1549038655.1,286047002.3,N
1549038675.9,286046999.9,N
1549038695.7,286047000.8,N
1549038715.5,286047000.0,N
1549038735.4,286047002.6,N
1549038755.2,286047000.2,N
1549038775.1,286046999.9,N
1549038776.0,286046999.9,N
1549038795.8,286047002.6,N
1549038815.6,286046999.7,N
1549038835.5,286047000.7,N
1549038855.3,286047000.0,N
1549038875.2,286047002.8,N
1549038895.9,286047002.8,N
1549038915.7,286047002.8,N
1549038935.6,286047002.4,N
1549038955.4,286047001.5,N
1549038975.3,286047002.8,N
1549038995.1,286047002.8,N
1549038996.0,286047002.8,N
1549039015.8,286047000.2,N
1549039035.7,286047000.0,N
1549039055.5,286047000.2,N
1549039075.3,286047002.4,N
1549039095.2,286047002.7,N
1549039115.0,286047001.1,N
1549039115.9,286047001.1,N
1549039135.8,286046998.3,N
1549039155.6,286047000.4,N
1549039175.4,286047000.6,N
1549039195.3,286047001.2,N
1549039215.1,286046999.9,N
1549039235.8,286047002.5,N
1549039255.7,286046999.8,N
1549039275.5,286046999.8,N
1549039295.4,286047001.5,N
1549039315.2,286047004.4,Y
1549039335.0,286047000.2,P
1549039335.9,286047000.2,N
1549039355.8,286047000.9,N
1549039375.6,286046998.2,Y
1549039395.5,286046996.9,P
1549039415.3,286046998.2,N
1549039435.1,286047000.6,N
1549039455.9,286046998.6,N
1549039475.7,286046996.7,N
1549039495.5,286047000.9,N
1549039515.4,286047000.9,N
1549039535.2,286047002.0,N
1549039555.1,286047002.4,N
1549039556.0,286047002.4,N
1549039575.8,286047002.6,N
1549039595.6,286046999.9,N
1549039615.5,286047000.0,N
1549039635.3,286046999.9,N
1549039655.2,286047000.4,N
1549039675.9,286047000.3,N
1549039695.7,286047000.0,N
1549039715.6,286047000.5,N
1549039735.4,286047000.9,N
1549039755.2,286047002.8,N
1549039775.1,286047001.6,N
1549039776.0,286047001.6,N
1549039795.8,286047003.6,N
1549039815.7,286047001.4,N
1549039835.5,286047003.6,N
1549039855.3,286047003.9,N
1549039875.2,286047001.5,N
1549039895.0,286047002.4,N
1549039895.9,286047002.4,N
1549039915.8,286047002.7,N
1549039935.6,286047001.6,N
1549039955.4,286047002.2,N
1549039975.3,286047002.6,N
1549039995.1,286047001.9,N
1549040015.8,286047002.8,N
1549040035.8,286047002.0,N
1549040055.6,286047001.4,N
1549040075.4,286047001.7,N
1549040095.3,286047002.2,N
1549040115.1,286047000.1,N
1549040135.9,286046999.7,N
1549040155.7,286047002.6,N
1549040175.5,286047002.7,N
1549040195.4,286046999.7,N
1549040215.2,286047002.7,N
1549040235.0,286047001.8,N
1549040235.9,286047001.8,N
1549040255.8,286047002.0,N
1549040275.6,286047001.9,N
1549040295.5,286047004.4,Y
1549040315.3,286047000.2,P
1549040335.1,286047001.0,N
1549040355.9,286047000.9,N
1549040375.7,286046998.4,N
1549040395.6,286046999.0,N
